Regional Weather Roundup
Issued by NWS State College, PA

Home | Current Version | Previous Version | Text Only | Print | Product List | Glossary Off
Versions: 1 2 3 4 5 6 7 8 9 10 11 12 13 14 15 16 17 18 19 20 21 22 23 24 25 26 27 28 29 30 31 32 33 34 35 36 37 38 39 40 41 42 43 44 45 46 47 48 49 50

000
ASUS41 KCTP 130610
RWRCTP

REGIONAL WEATHER ROUNDUP
NATIONAL WEATHER SERVICE STATE COLLEGE PA
100 AM EST SAT FEB 13 2016

Note: "fair" indicates few or no clouds below 12,000 feet with no
significant weather and/or obstructions to visibility.

* = STATION THAT DOES NOT REPORT PRECIPITATION /E.G. RAIN...SNOW...ETC/
    THUNDER OR FOG.

PAZ002>004-007>009-013>016-020>023-029>032-130700-
WESTERN PENNSYLVANIA

CITY           SKY/WX    TMP DP  RH WIND       PRES   REMARKS
ERIE           LGT SNOW  16   5  62 NW16G28   30.06R WCI   1
MEADVILLE      HAZE      12   6  77 NW12G20   30.00R VSB 1/4 WCI  -2
FRANKLIN*      CLOUDY    12   3  67 NW5       29.98R VSB 3/4 WCI   4
NEW CASTLE     FLURRIES  14   9  80 W9        30.06R WCI   2
BEAVER COUNTY  NOT AVBL
BUTLER*        PTCLDY    12   7  79 W9G16     30.04R WCI   0
PITTSBURGH INT CLOUDY    15   8  73 W12       30.03R WCI   2
PITTSBURGH     CLOUDY    17   7  64 W15G28    30.02R HAZE    WCI   2
INDIANA*       CLOUDY    16   9  73 NW9       29.98R WCI   4
LATROBE        LGT SNOW  16  14  93 W10G23    30.01R VSB 3/4 WCI   3
WASHINGTON CO* CLOUDY    16   5  62 W7G17     30.06R WCI   6
$$

PAZ004>006-010>012-017>019-024>028-033>037-041-042-045-046-049>053-130700-
CENTRAL PENNSYLVANIA

CITY           SKY/WX    TMP DP  RH WIND       PRES   REMARKS
BRADFORD       LGT SNOW   9   2  73 NW23G29   29.83R WCI -11
DUBOIS         LGT SNOW  11   5  77 W13       29.87R WCI  -4
CLEARFIELD     PTCLDY    15   5  64 W14G23    29.88R WCI   0
JOHNSTOWN      LGT SNOW  12   5  73 NW17G30   29.85R WCI  -5
ALTOONA        LGT SNOW  17   8  67 NW23G29   29.90R WCI  -1
STATE COLLEGE  CLEAR     18   7  64 NW20G25   29.88S WCI   1
WILLIAMSPORT   PTCLDY    19  11  70 W8        29.89S WCI   9
SELINSGROVE    CLEAR     15  11  83 CALM      29.92F
FT INDIANTOWN  PTCLDY    17  17  99 W2        29.92F
CAPITAL CITY   MOCLDY    18  12  77 W6        29.94F WCI  10
HARRISBURG     CLOUDY    21  13  71 VRB3      29.94F
YORK           PTCLDY    19  12  74 W6        29.94F WCI  11
$$

PAZ038>040-043-044-047-048-054-055-060>062-067>071-130700-
EASTERN PENNSYLVANIA

CITY           SKY/WX    TMP DP  RH WIND       PRES   REMARKS
SCRANTON       CLOUDY    18  13  80 SW9       29.84F WCI   7
MOUNT POCONO   LGT SNOW  13   8  81 W10       29.76F WCI   0
ALLENTOWN      CLOUDY    20  14  77 W8        29.91F WCI  10
QUAKERTOWN*    MOCLDY    18  16  93 W5        29.91F WCI  11
READING        CLOUDY    19  15  84 CALM      29.93F
LANCASTER      FOG       15  13  91 CALM      29.94F VSB 3/4
COATESVILLE    MOCLDY    19  19 100 CALM      29.93F
POTTSTOWN      CLOUDY    19  16  88 VRB3      29.94F
BLUE BELL        N/A     21  16  79 W3        29.93S
DOYLESTOWN     CLOUDY    18  14  84 SW5       29.91F WCI  11
WILLOW GROVE   NOT AVBL
NORTH PHILA    CLOUDY    22  15  75 W9        29.96F WCI  12
PHILADELPHIA   CLOUDY    23  16  74 W10       29.97F WCI  12
$$



USA.gov is the U.S. government's official web portal to all federal, state and local government web resources and services.